FW1286 Weather Reports


Display with metric or nautical units.
time (UTC)temp
F
wind
direction
speed
MPH
gust
MPH
rain 1hr
in
rain 24hr
in
rain mn
in
humidity
%
barometer
mb
20221002040204 65 0.0 0.0 0.00 0.00 0.00 48 1018.2
20221002035219 65 0.0 0.0 0.00 0.00 0.00 48 1018.2
20221002034212 65 0.0 0.0 0.00 0.00 0.00 47 1018.2
20221002033228 65 0.0 0.0 0.00 0.00 0.00 46 1018.1
20221002032217 66 0.0 0.0 0.00 0.00 0.00 45 1018.0
20221002031231 66 0.0 0.0 0.00 0.00 0.00 44 1017.9
20221002030201 67 0.0 0.0 0.00 0.00 0.00 42 1017.6
20221002025145 67 0.0 0.0 0.00 0.00 0.00 42 1017.5
20221002012235 71 0.0 0.0 0.00 0.00 0.00 38 1016.4
20221002011219 71 0.0 0.0 0.00 0.00 0.00 37 1016.3
20221002010230 72 0.0 0.0 0.00 0.00 0.00 37 1016.2
20221002005238 73 0.0 0.0 0.00 0.00 0.00 36 1016.2
20221002004213 74 0.0 0.0 0.00 0.00 0.00 35 1016.2
20221002003149 75 0.0 0.0 0.00 0.00 0.00 34 1016.2
20221002002209 77 0.0 0.0 0.00 0.00 0.00 33 1016.2
20221002001220 78 0.0 0.0 0.00 0.00 0.00 32 1016.0
20221002000232 80 0.0 0.0 0.00 0.00 0.00 31 1016.0
20221001235215 81 0.0 0.0 0.00 0.00 0.00 30 1015.9
20221001234141 82 0.0 0.0 0.00 0.00 0.00 30 1015.9
20221001233126 82 0.0 0.0 0.00 0.00 0.00 29 1015.7
20221001231042 83 0.0 0.0 0.00 0.00 0.00 27 1015.7
20221001230101 83 0.0 0.0 0.00 0.00 0.00 28 1015.6
20221001223051 83 0.0 0.0 0.00 0.00 0.00 28 1015.4
20221001222053 84 0.0 0.0 0.00 0.00 0.00 27 1015.4
20221001221036 83 0.0 0.0 0.00 0.00 0.00 28 1015.3
20221001220042 84 0.0 0.0 0.00 0.00 0.00 28 1015.3
20221001215045 84 0.0 0.0 0.00 0.00 0.00 28 1015.3
20221001214025 84 0.0 0.0 0.00 0.00 0.00 29 1015.3
20221001213014 84 0.0 0.0 0.00 0.00 0.00 30 1015.4
20221001211941 84 0.0 0.0 0.00 0.00 0.00 32 1015.3
20221001210943 84 0.0 0.0 0.00 0.00 0.00 33 1015.4
20221001205947 84 0.0 0.0 0.00 0.00 0.00 32 1015.4
20221001205004 84 0.0 0.0 0.00 0.00 0.00 34 1015.5
20221001203939 84 0.0 0.0 0.00 0.00 0.00 33 1015.6
20221001202945 84 0.0 0.0 0.00 0.00 0.00 36 1015.6
20221001201952 83 0.0 0.0 0.00 0.00 0.00 35 1015.7
20221001200940 83 0.0 0.0 0.00 0.00 0.00 35 1015.8
20221001195945 83 0.0 0.0 0.00 0.00 0.00 37 1015.8
20221001194913 82 0.0 0.0 0.00 0.00 0.00 35 1015.9
20221001193849 83 0.0 0.0 0.00 0.00 0.00 35 1016.0
20221001192856 82 0.0 0.0 0.00 0.00 0.00 38 1016.2
20221001191906 82 0.0 0.0 0.00 0.00 0.00 39 1016.3
20221001190836 81 0.0 0.0 0.00 0.00 0.00 40 1016.4
20221001185832 81 0.0 0.0 0.00 0.00 0.00 40 1016.6
20221001184824 81 0.0 0.0 0.00 0.00 0.00 40 1016.8
20221001183750 80 0.0 0.0 0.00 0.00 0.00 41 1016.9
20221001182748 80 0.0 0.0 0.00 0.00 0.00 41 1017.0
20221001181728 80 0.0 0.0 0.00 0.00 0.00 40 1017.2
20221001180752 79 0.0 0.0 0.00 0.00 0.00 41 1017.4
20221001175747 79 0.0 0.0 0.00 0.00 0.00 40 1017.6
20221001174803 79 0.0 0.0 0.00 0.00 0.00 41 1017.8
20221001173756 78 0.0 0.0 0.00 0.00 0.00 42 1017.9
20221001172732 77 0.0 0.0 0.00 0.00 0.00 40 1018.0
20221001171720 78 0.0 0.0 0.00 0.00 0.00 42 1018.0
20221001170735 77 0.0 0.0 0.00 0.00 0.00 44 1018.1
20221001165747 77 0.0 0.0 0.00 0.00 0.00 44 1018.3
20221001164729 76 0.0 0.0 0.00 0.00 0.00 45 1018.3
20221001163739 76 0.0 0.0 0.00 0.00 0.00 45 1018.4
20221001162722 75 0.0 0.0 0.00 0.00 0.00 46 1018.4
20221001161732 74 0.0 0.0 0.00 0.00 0.00 46 1018.4
20221001160750 74 0.0 0.0 0.00 0.00 0.00 46 1018.5
20221001155807 73 0.0 0.0 0.00 0.00 0.00 46 1018.6
20221001154816 73 0.0 0.0 0.00 0.00 0.00 46 1018.6
20221001153743 72 0.0 0.0 0.00 0.00 0.00 45 1018.7
20221001152737 71 0.0 0.0 0.00 0.00 0.00 45 1018.8
20221001151739 70 0.0 0.0 0.00 0.00 0.00 49 1018.6
20221001150718 69 0.0 0.0 0.00 0.00 0.00 47 1018.5
20221001145720 68 0.0 0.0 0.00 0.00 0.00 51 1018.5
20221001144705 67 0.0 0.0 0.00 0.00 0.00 52 1018.5
20221001131733 50 0.0 0.0 0.00 0.00 0.00 77 1017.8
20221001130719 49 0.0 0.0 0.00 0.00 0.00 78 1017.8
20221001125655 48 0.0 0.0 0.00 0.00 0.00 78 1017.5
20221001124623 48 0.0 0.0 0.00 0.00 0.00 78 1017.4
20221001123600 48 0.0 0.0 0.00 0.00 0.00 78 1017.2
20221001122527 48 0.0 0.0 0.00 0.00 0.00 78 1017.3
20221001121507 49 0.0 0.0 0.00 0.00 0.00 77 1017.0
20221001120525 49 0.0 0.0 0.00 0.00 0.00 77 1016.9
20221001115538 49 0.0 0.0 0.00 0.00 0.00 77 1016.8
20221001114554 49 0.0 0.0 0.00 0.00 0.00 77 1016.7
20221001113605 50 0.0 0.0 0.00 0.00 0.00 76 1016.7
20221001112630 50 0.0 0.0 0.00 0.00 0.00 76 1016.7
20221001111627 50 0.0 0.0 0.00 0.00 0.00 77 1016.5
20221001110559 50 0.0 0.0 0.00 0.00 0.00 76 1016.3
20221001104434 50 0.0 0.0 0.00 0.00 0.00 76 1016.2
20221001103430 50 0.0 0.0 0.00 0.00 0.00 76 1016.2
20221001102443 50 0.0 0.0 0.00 0.00 0.00 75 1016.0
20221001101443 50 0.0 0.0 0.00 0.00 0.00 74 1015.9
20221001100427 50 0.0 0.0 0.00 0.00 0.00 74 1016.0
20221001095425 51 0.0 0.0 0.00 0.00 0.00 73 1015.8
20221001094432 51 0.0 0.0 0.00 0.00 0.00 72 1015.6
20221001093434 52 0.0 0.0 0.00 0.00 0.00 71 1015.8
20221001092458 52 0.0 0.0 0.00 0.00 0.00 72 1015.7
20221001091523 52 0.0 0.0 0.00 0.00 0.00 72 1015.7
20221001090459 52 0.0 0.0 0.00 0.00 0.00 72 1015.6
20221001044606 65 0.0 0.0 0.00 0.00 0.00 52 1014.8
20221001043546 65 0.0 0.0 0.00 0.00 0.00 52 1014.9
20221001042603 66 0.0 0.0 0.00 0.00 0.00 51 1014.9
20221001041557 66 0.0 0.0 0.00 0.00 0.00 50 1015.0